Location: Newark
(51.0967°N, 24.7917°E)
Time: 23:33:53
(UTC+00:00)

STARLINK-1213 - Pass Details

Date: 02 April 2020
Orbit: 379 x 380 km, 53.0° (Epoch: 02 June)

Event Time Altitude Azimuth Distance (km) Brightness Sun altitude
Exits shadow 00:58:56 15° 95° (E) 1,131 5.6 -24.9°
Drops below altitude 10° 00:59:40 10° 86° (E) 1,381 6.3 -24.8°
Sets 01:01:54 0° 73° (ENE) 2,236 7.7 -24.5°
